This is the latest recevied weather packets stored in our database for station/object EA3ANS-1. If no packets are shown the sender has not sent any weather packets the latest 10 day(s).
| Time | Temp. | Humidity | Pressure | Rain* | Wind** | Luminosity | Snow |
|---|---|---|---|---|---|---|---|
| 1787745353 | 28.89° C | - | 1012 hPa | 0 mm | 1.34 m/s, 111° | - | - |
| 1787744753 | 28.89° C | - | 1012.3 hPa | 0 mm | 0.89 m/s, 35° | - | - |
| 1787744144 | 28.33° C | - | 1012.7 hPa | 0 mm | 0.89 m/s, 24° | - | - |
| 1787743547 | 27.78° C | - | 1012.8 hPa | 0 mm | 1.79 m/s, 188° | - | - |
| 1787742949 | 27.22° C | - | 1012.6 hPa | 0 mm | 1.79 m/s, 149° | - | - |
| 1787742346 | 27.78° C | - | 1012.1 hPa | 0 mm | 0.89 m/s, 170° | - | - |
| 1787741749 | 28.33° C | - | 1012.1 hPa | 0 mm | 0.89 m/s, 134° | - | - |
| 1787741149 | 27.22° C | - | 1012.4 hPa | 0 mm | 0.45 m/s, 117° | - | - |
| 1787740552 | 26.67° C | - | 1012.5 hPa | 0 mm | 0.89 m/s, 75° | - | - |
| 1787739946 | 26.11° C | - | 1012.8 hPa | 0 mm | 0.89 m/s, 21° | - | - |
| 1787739348 | 26.11° C | - | 1013.3 hPa | 0 mm | 0.89 m/s, 44° | - | - |
| 1787738751 | 26.11° C | - | 1013.3 hPa | 0 mm | 0.89 m/s, 308° | - | - |
| 1787738153 | 26.11° C | - | 1013.1 hPa | 0 mm | 2.68 m/s, 266° | - | - |
| 1787737556 | 25° C | - | 1012.2 hPa | 0 mm | 1.79 m/s, 252° | - | - |
| 1787736958 | 24.44° C | - | 1011.2 hPa | 0 mm | 0.89 m/s, 359° | - | - |
| 1787736361 | 23.89° C | - | 1011.1 hPa | 0 mm | 2.68 m/s, 309° | - | - |
| 1787735756 | 23.89° C | - | 1011 hPa | 0 mm | 2.68 m/s, 297° | - | - |
| 1787735159 | 24.44° C | - | 1012.2 hPa | 0 mm | 1.79 m/s, 347° | - | - |
| 1787734562 | 23.89° C | - | 1012.1 hPa | 0 mm | 0.45 m/s, 346° | - | - |
| 1787733964 | 23.89° C | - | 1012.9 hPa | 0 mm | 1.34 m/s, 307° | - | - |
| 1787733367 | 23.89° C | - | 1013.1 hPa | 0 mm | 0.45 m/s, 352° | - | - |
| 1787732768 | 23.89° C | - | 1013.3 hPa | 0 mm | 2.68 m/s, 232° | - | - |
| 1787732171 | 23.33° C | - | 1012.1 hPa | 0 mm | 0.89 m/s, 203° | - | - |
| 1787731562 | 23.33° C | - | 1011.2 hPa | 0 mm | 3.58 m/s, 318° | - | - |
| 1787730965 | 22.78° C | - | 1011.5 hPa | 0 mm | 3.58 m/s, 359° | - | - |
* Rain latest hour (hover to see other rain measurements)
** Current wind speed in m/s (hover to see current wind gust speed)